User: anonymous   Login
Location: Unspecified
(0.0000°N, 0.0000°E)
Time: 10:47:45
(UTC+00:00)
Language:

Skynet 4B - Orbit

View from above orbital plane
View from above orbital plane
View from above satellite
View from above satellite

Ground track
Ground track

The orbit data is extracted from the following two-line orbital elements,

1 19687U 88109A   17198.19851896 -.00000147 +00000-0 +00000-0 0  9993
2 19687 015.4103 005.0836 0005418 217.8431 142.1529 00.99683174085760
Epoch (UTC): 17 July 2017 04:45:52
Eccentricity: 0.0005418
inclination: 15.4103°
perigee height: 35929 km
apogee height: 35975 km
right ascension of ascending node: 5.0836°
argument of perigee: 217.8431°
revolutions per day: 0.99683174
mean anomaly at epoch: 142.1529°
orbit number at epoch: 8576

The dashed part of the orbit path shows where the satellite is in the earth's shadow,  

DLR